EW8226 Weather Reports


time (UTC)temp
C
wind
direction
speed
KPH
gust
KPH
rain 1hr
cm
rain 24hr
cm
rain mn
cm
humidity
%
barometer
mb
20260507183110 15 33 0.0 0.0 0.00 0.00 0.00 54 1013.5
20260507181545 16 76 0.0 0.0 0.00 0.00 0.00 51 1013.4
20260507180043 16 67 0.0 0.0 0.00 0.00 0.00 50 1013.3
20260507174542 16 90 0.0 1.6 0.00 0.00 0.00 49 1013.3
20260507173047 16 53 0.0 0.0 0.00 0.00 0.00 49 1013.3
20260507171541 17 59 0.0 0.0 0.00 0.00 0.00 49 1013.3
20260507170044 16 127 0.0 0.0 0.00 0.00 0.00 50 1013.4
20260507164555 16 42 0.0 0.0 0.00 0.00 0.00 50 1013.4
20260507163039 16 53 0.0 0.0 0.00 0.00 0.00 50 1013.5
20260507161550 16 60 0.0 0.0 0.00 0.00 0.00 48 1013.6
20260507160038 16 13 0.0 0.0 0.00 0.00 0.00 48 1013.6
20260507154537 17 117 0.0 0.0 0.00 0.00 0.00 47 1013.6
20260507153041 17 5 0.0 0.0 0.00 0.00 0.00 47 1013.5
20260507151537 17 59 0.0 0.0 0.00 0.00 0.00 46 1013.6
20260507150036 17 190 0.0 0.0 0.00 0.00 0.00 47 1013.6
20260507144536 16 169 0.0 0.0 0.00 0.00 0.00 48 1013.9
20260507143030 16 11 0.0 0.0 0.00 0.00 0.00 49 1014.0
20260507141531 16 67 0.0 0.0 0.00 0.00 0.00 49 1014.1
20260507140028 16 5 0.0 0.0 0.00 0.00 0.00 50 1014.2
20260507134529 16 97 0.0 0.0 0.00 0.00 0.00 50 1014.3
20260507133030 16 48 0.0 0.0 0.00 0.00 0.00 52 1014.3
20260507131528 16 42 0.0 1.6 0.00 0.00 0.00 50 1014.4
20260507130036 16 338 0.0 0.0 0.00 0.00 0.00 49 1014.3
20260507124535 16 5 0.0 0.0 0.00 0.00 0.00 49 1014.3
20260507123027 16 146 0.0 0.0 0.00 0.00 0.00 49 1014.4
20260507121525 16 78 0.0 0.0 0.00 0.00 0.00 50 1014.4
20260507120026 16 13 0.0 1.6 0.00 0.00 0.00 52 1014.5
20260507114525 15 63 0.0 0.0 0.00 0.00 0.00 54 1014.6
20260507113037 15 355 0.0 0.0 0.00 0.00 0.00 57 1014.7
20260507111519 15 84 0.0 0.0 0.00 0.00 0.00 59 1014.8
20260507110017 14 344 0.0 0.0 0.00 0.00 0.00 62 1015.0
20260507104515 14 340 0.0 0.0 0.00 0.00 0.00 62 1015.0
20260507103019 13 316 0.0 0.0 0.00 0.00 0.00 63 1015.1
20260507101517 14 360 0.0 0.0 0.00 0.00 0.00 61 1015.1
20260507100014 13 328 0.0 0.0 0.00 0.00 0.00 63 1015.2
20260507094516 14 342 0.0 0.0 0.00 0.00 0.00 63 1015.1
20260507093013 13 313 0.0 0.0 0.00 0.00 0.00 63 1015.1
20260507091510 13 343 0.0 0.0 0.00 0.00 0.00 67 1015.0
20260507090010 13 334 0.0 0.0 0.00 0.00 0.00 67 1015.0
20260507084510 13 97 0.0 0.0 0.00 0.00 0.00 68 1015.1
20260507083010 12 34 0.0 0.0 0.00 0.00 0.00 70 1015.1
20260507081510 12 342 0.0 1.6 0.00 0.00 0.00 70 1015.0
20260507080011 12 69 0.0 0.0 0.00 0.00 0.00 71 1015.1
20260507074508 11 67 0.0 0.0 0.00 0.00 0.00 72 1015.0
20260507073006 11 62 0.0 0.0 0.00 0.00 0.00 77 1014.8
20260507071505 11 66 0.0 0.0 0.00 0.00 0.00 80 1014.7
20260507070012 10 360 0.0 0.0 0.00 0.00 0.00 81 1014.6
20260507064504 10 360 0.0 0.0 0.00 0.00 0.00 83 1014.6
20260507063004 10 360 0.0 0.0 0.00 0.00 0.00 83 1014.6
20260507061503 10 360 0.0 0.0 0.00 0.00 0.00 84 1014.5
20260507060001 10 360 0.0 0.0 0.00 0.00 0.00 84 1014.4
20260507054600 10 360 0.0 0.0 0.00 0.00 0.00 84 1014.3
20260507053100 10 360 0.0 0.0 0.00 0.00 0.00 84 1014.2
20260507051558 10 360 0.0 0.0 0.00 0.00 0.00 84 1014.1
20260507050057 10 360 0.0 0.0 0.00 0.00 0.00 84 1014.0
20260507044609 10 355 0.0 0.0 0.00 0.00 0.00 83 1013.8
20260507043104 10 291 0.0 0.0 0.00 0.00 0.00 83 1013.7
20260507041557 10 291 0.0 0.0 0.00 0.00 0.00 82 1013.7
20260507040053 10 290 0.0 0.0 0.00 0.00 0.00 82 1013.6
20260507034554 10 292 0.0 0.0 0.00 0.00 0.00 82 1013.6
20260507033053 10 292 0.0 0.0 0.00 0.00 0.00 81 1013.5
20260507031551 10 292 0.0 0.0 0.00 0.00 0.00 81 1013.6
20260507030051 10 292 0.0 0.0 0.00 0.00 0.00 80 1013.6
20260507024553 10 292 0.0 0.0 0.00 0.00 0.00 80 1013.5
20260507023103 10 290 0.0 0.0 0.00 0.00 0.00 80 1013.5
20260507021550 10 331 0.0 0.0 0.00 0.00 0.00 79 1013.6
20260507020057 10 330 0.0 0.0 0.00 0.00 0.00 79 1013.5
20260507014549 10 304 0.0 0.0 0.00 0.00 0.00 79 1013.4
20260507013048 10 302 0.0 0.0 0.00 0.00 0.00 78 1013.5
20260507011549 10 307 0.0 0.0 0.00 0.00 0.00 78 1013.4
20260507010046 10 305 0.0 0.0 0.00 0.00 0.00 78 1013.4
20260507004544 10 355 0.0 0.0 0.00 0.00 0.00 77 1013.4
20260507003045 10 338 0.0 0.0 0.00 0.00 0.00 77 1013.4
20260507001607 10 338 0.0 0.0 0.00 0.00 0.00 77 1013.4
20260507000045 10 329 0.0 0.0 0.00 0.00 0.00 77 1013.4
20260506234551 10 330 0.0 0.0 0.00 0.00 0.00 76 1013.3
20260506233043 10 296 0.0 0.0 0.00 0.00 0.00 77 1013.2
20260506231544 10 284 0.0 0.0 0.00 0.00 0.00 76 1013.3
20260506230053 10 280 0.0 0.0 0.00 0.00 0.00 76 1013.4
20260506224542 10 327 0.0 0.0 0.00 0.00 0.00 76 1013.4
20260506223041 11 261 0.0 0.0 0.00 0.00 0.00 75 1013.4
20260506221549 11 299 0.0 0.0 0.00 0.00 0.00 75 1013.3
20260506220040 10 340 0.0 0.0 0.00 0.00 0.00 75 1013.2
20260506214539 10 328 0.0 0.0 0.00 0.00 0.00 76 1013.1
20260506213037 10 330 0.0 0.0 0.00 0.00 0.00 76 1013.0
20260506211536 10 346 0.0 0.0 0.00 0.00 0.00 75 1012.9
20260506210049 10 332 0.0 0.0 0.00 0.00 0.00 75 1012.9
20260506204537 10 348 0.0 0.0 0.00 0.00 0.00 74 1012.8
20260506203037 11 346 0.0 0.0 0.00 0.00 0.00 74 1012.7
20260506201532 11 327 0.0 0.0 0.00 0.00 0.00 73 1012.6
20260506200035 11 331 0.0 0.0 0.00 0.00 0.00 72 1012.5
20260506194532 11 32 0.0 1.6 0.00 0.00 0.00 71 1012.4
20260506193036 11 355 0.0 1.6 0.00 0.00 0.00 71 1012.1
20260506191529 11 355 0.0 1.6 0.00 0.00 0.00 70 1012.0
20260506190026 11 285 0.0 1.6 0.00 0.00 0.00 70 1011.9
20260506184527 11 355 0.0 0.0 0.00 0.00 0.00 69 1011.7